User: anonymous   Login
Location: Unspecified
(0.0000°N, 0.0000°E)
Time: 11:57:13
(UTC+00:00)
Language:

Envisat - Orbit

View from above orbital plane
View from above orbital plane
View from above satellite
View from above satellite

Ground track
Ground track

The orbit data is extracted from the following two-line orbital elements,

1 27386U 02009A   23030.18419733  .00000250  00000-0  95753-4 0  9991
2 27386  98.2128   6.0003 0001192  88.6035 282.0496 14.38231332 96129
Epoch (UTC): 30 January 2023 04:25:14
Eccentricity: 0.0001192
inclination: 98.2128°
perigee height: 763 km
apogee height: 765 km
right ascension of ascending node: 6.0003°
argument of perigee: 88.6035°
revolutions per day: 14.38231332
mean anomaly at epoch: 282.0496°
orbit number at epoch: 9612

The dashed part of the orbit path shows where the satellite is in the earth's shadow,  

DLR